[[{"header":{"parameterUnit":"m.s-1","parameterCategory":2,"la1":30.2991,"la2":30.254,"lo1":-89.0895,"lo2":-89.0444,"dy":0.0017,"dx":0.0017,"nx":28,"ny":28,"refTime":"2024-02-15T03:00:00:Z","depth":"0","parameterNumber":2,"parameterNumberName":"U-component_of_CURRENTS"},"data":[0,0,0,0,0,0,0,0,0,0,0,0,0,0,0,0,0,0,0,0,0,0,0,0,0,0,0,0,0,0,0,0,0,0,0,0,0,0,0,0,0,0,0,0,0,0,0,0,0,0,0,0,0,0,0,0,0,0,-0.2726,-0.2725,0,-0.2715,-0.2715,-0.2715,-0.27,-0.2699,-0.2699,-0.2698,-0.2599,-0.2597,-0.2595,0,0,0,0,0,0,0,0,0,0,0,0,0,-0.2588,-0.2592,-0.2726,-0.2725,-0.2725,-0.2715,-0.2715,-0.2715,-0.27,-0.2699,-0.2699,-0.2698,-0.26,-0.2598,-0.2595,0,0,0,0,0,0,0,0,0,0,0,0,0,-0.2623,-0.2593,-0.2726,-0.2714,-0.2712,-0.2715,-0.2715,-0.2715,-0.27,-0.2699,-0.2699,-0.2698,-0.2601,-0.2598,-0.2595,-0.2592,0,0,-0.2585,-0.2584,0,0,0,0,0,0,0,0,-0.2621,-0.2629,-0.2716,-0.2714,-0.2713,-0.2705,-0.263,-0.2669,-0.27,-0.2708,-0.2698,-0.2697,-0.2625,-0.262,-0.2626,-0.2587,-0.2583,-0.2585,-0.2583,-0.2581,-0.2581,0,0,0,0,0,0,0,-0.2619,-0.2628,-0.2725,-0.2715,-0.2714,-0.2659,-0.2665,-0.2637,-0.2672,-0.2707,-0.2706,-0.27,-0.2624,-0.2629,-0.2623,-0.2582,-0.2585,-0.2582,-0.258,-0.2579,-0.2485,-0.2484,0,0,0,0,0,0,-0.2624,-0.2627,-0.2725,-0.2724,-0.266,-0.2663,-0.2669,-0.2711,-0.2674,-0.2668,-0.27,-0.2699,-0.2635,-0.2627,-0.2619,-0.2565,-0.2582,-0.2579,-0.2577,-0.2485,-0.2485,-0.2484,0,0,0,0,0,0,-0.2622,-0.2635,-0.2725,-0.2669,-0.2676,-0.2667,-0.2713,-0.2711,-0.2708,-0.2669,-0.2662,-0.2697,-0.2634,-0.2624,-0.2615,-0.2563,-0.2577,-0.2574,-0.2486,-0.2485,-0.2484,-0.2488,0,0,0,0,0,0,-0.2619,-0.2635,-0.2665,-0.2672,-0.268,-0.2735,-0.2714,-0.2712,-0.2704,-0.2702,-0.2664,-0.2655,-0.2632,-0.262,-0.2611,-0.2559,-0.2572,-0.2487,-0.2486,-0.2485,-0.2488,-0.2487,-0.2486,0,0,0,0,0,-0.2615,-0.2671,-0.2668,-0.2678,-0.2724,-0.2735,-0.2736,-0.2724,-0.2705,-0.2716,-0.2699,-0.2656,-0.2604,-0.2619,-0.2609,-0.2553,-0.2487,-0.2486,-0.2485,-0.2489,-0.2487,-0.2486,0,0,0,0,0,0,-0.2659,-0.2675,-0.2671,-0.2739,-0.2734,-0.2732,-0.2737,-0.2723,-0.2719,-0.2715,-0.2674,-0.2665,-0.2625,-0.2604,-0.262,-0.2523,-0.2527,-0.2524,-0.2534,-0.2532,-0.2531,-0.2496,-0.2569,0,0,0,0,0,-0.2674,-0.2699,-0.271,-0.2757,-0.2757,-0.2742,-0.2741,-0.2738,-0.2731,-0.2729,-0.2693,-0.2654,-0.2613,-0.259,-0.2559,-0.2525,-0.248,-0.2475,-0.2474,-0.2473,-0.2439,-0.2359,-0.2347,-0.248,-0.248,-0.248,0,0,-0.2697,-0.2711,-0.2724,-0.2761,-0.2754,-0.2737,-0.2741,-0.2751,-0.2713,-0.2716,-0.2662,-0.2653,-0.2607,-0.2566,-0.2541,-0.254,-0.2417,-0.2471,-0.2471,-0.2436,-0.2356,-0.2343,-0.2331,-0.2479,-0.2479,-0.2479,0,0,-0.2713,-0.2773,-0.2766,-0.2771,-0.2764,-0.2752,-0.2751,-0.2743,-0.2719,-0.2692,-0.2667,-0.2637,-0.2582,-0.2534,-0.2501,-0.2473,-0.2418,-0.246,-0.2417,-0.2341,-0.2329,-0.2317,-0.2267,-0.225,-0.2454,-0.2454,-0.2454,0,-0.2718,-0.2731,-0.2767,-0.2757,-0.2735,-0.2749,-0.2714,-0.2705,-0.2688,-0.2653,-0.267,-0.257,-0.2547,-0.2457,-0.2457,-0.246,-0.2429,-0.2429,-0.2338,-0.2325,-0.2313,-0.2263,-0.2246,-0.2454,-0.2454,-0.2454,-0.2454,0,-0.2708,-0.2713,-0.2716,-0.2686,-0.2687,-0.2674,-0.2658,-0.2641,-0.2611,-0.2586,-0.2514,-0.2504,-0.2436,-0.2425,-0.2434,-0.2332,-0.2343,-0.2351,-0.234,-0.2299,-0.2251,-0.2232,-0.2454,-0.2454,-0.2454,-0.2454,0,0,-0.2686,-0.2689,-0.2684,-0.2632,-0.2641,-0.2621,-0.2585,-0.2523,-0.2464,-0.2458,-0.2362,-0.2326,-0.2336,-0.23,-0.2302,-0.2247,-0.2163,-0.2271,-0.2268,-0.2217,-0.2014,-0.1926,-0.1898,-0.2166,-0.2162,-0.2159,-0.2022,0,-0.2622,-0.2563,-0.2598,-0.2514,-0.2458,-0.2483,-0.2435,-0.2407,-0.2379,-0.2313,-0.229,-0.2222,-0.2281,-0.2253,-0.2212,-0.2179,-0.211,-0.22,-0.2061,-0.2056,-0.1979,-0.187,-0.1795,-0.1657,-0.2004,-0.2001,-0.1998,0,-0.2555,-0.2512,-0.2419,-0.2361,-0.2345,-0.2311,-0.2223,-0.2194,-0.2154,-0.2141,-0.2109,-0.2111,-0.2048,-0.2096,-0.1997,-0.2062,-0.2023,-0.1997,-0.1991,-0.1882,-0.193,-0.1747,-0.1609,-0.1599,-0.1969,-0.1971,-0.1973,0,-0.2412,-0.2376,-0.2273,-0.226,-0.2217,-0.2168,-0.2146,-0.2119,-0.2087,-0.2027,-0.201,-0.1957,-0.1922,-0.1872,-0.1871,-0.1921,-0.1752,-0.1809,-0.168,-0.1676,-0.1562,-0.1552,-0.1381,-0.1676,-0.1676,-0.1677,-0.1677,0,-0.2274,-0.2195,-0.2195,-0.212,-0.2019,-0.2046,-0.1949,-0.1935,-0.1922,-0.1886,-0.1913,-0.1868,-0.1864,-0.1807,-0.1799,-0.1677,-0.1689,-0.1619,-0.1604,-0.1565,-0.1557,-0.1505,-0.155,-0.1672,-0.1673,-0.1674,-0.1675,0,-0.2091,-0.2095,-0.1983,-0.1938,-0.1931,-0.1852,-0.1857,-0.1822,-0.1819,-0.1774,-0.1758,-0.1767,-0.1694,-0.1679,-0.1581,-0.1561,-0.142,-0.1409,-0.1377,-0.1357,-0.1223,-0.1271,-0.1076,-0.1048,-0.1223,-0.1219,-0.1216,0,-0.1969,-0.1888,-0.1847,-0.1824,-0.1794,-0.1732,-0.1726,-0.1743,-0.1749,-0.1716,-0.1703,-0.1618,-0.1542,-0.1377,-0.1315,-0.1207,-0.1265,-0.1073,-0.1125,-0.114,-0.1185,-0.1255,-0.1253,-0.1,-0.0995,-0.0992,-0.0989,0,-0.1738,-0.1747,-0.1684,-0.1659,-0.1637,-0.1626,-0.1628,-0.1604,-0.1643,-0.1581,-0.1502,-0.1406,-0.1284,-0.1119,-0.0999,-0.0956,-0.1043,-0.0991,-0.0996,-0.095,-0.1021,-0.1013,-0.1207,-0.0956,-0.096,-0.0962,-0.0964,-0.0965,-0.16,-0.1542,-0.1526,-0.1503,-0.1512,-0.1525,-0.1417,-0.1442,-0.1365,-0.1203,-0.1265,-0.1013,-0.0951,-0.0756,-0.0735,-0.0664,-0.0772,-0.0651,-0.0699,-0.0761,-0.0738,-0.0856,-0.0598,-0.0599,-0.06,-0.0601,-0.0602,0,-0.1433,-0.1427,-0.1398,-0.1369,-0.1354,-0.1397,-0.1364,-0.1224,-0.1037,-0.0931,-0.0754,-0.0545,-0.0434,-0.0433,-0.0423,-0.0396,-0.0443,-0.0406,-0.0504,-0.0509,-0.0576,-0.057,-0.0305,-0.0305,-0.0305,-0.0305,-0.0305,-0.0305,-0.1347,-0.1292,-0.1307,-0.1245,-0.1216,-0.1071,-0.0986,-0.0793,-0.0656,-0.0341,-0.0129,-0.0058,-0.0139,-0.0223,-0.0285,-0.0299,-0.0346,-0.0313,-0.037,-0.0454,-0.0483,-0.0511,-0.0512,-0.0239,-0.0239,-0.0282,-0.0282,-0.0282]},{"header":{"parameterUnit":"m.s-1","parameterCategory":2,"la1":30.2991,"la2":30.254,"lo1":-89.0895,"lo2":-89.0444,"dy":0.0017,"dx":0.0017,"nx":28,"ny":28,"refTime":"2024-02-15T03:00:00:Z","depth":"0","parameterNumber":3,"parameterNumberName":"V-component_of_CURRENTS"},"data":[0,0,0,0,0,0,0,0,0,0,0,0,0,0,0,0,0,0,0,0,0,0,0,0,0,0,0,0,0,0,0,0,0,0,0,0,0,0,0,0,0,0,0,0,0,0,0,0,0,0,0,0,0,0,0,0,0,0,-0.0148,-0.0146,0,0.0097,0.01,0.0104,0.0195,0.0194,0.0192,0.019,0.0506,0.0516,0.0526,0,0,0,0,0,0,0,0,0,0,0,0,0,-0.0373,-0.037,-0.0148,-0.0146,-0.0144,0.0096,0.0101,0.0105,0.0196,0.0194,0.0192,0.019,0.0503,0.0515,0.0527,0,0,0,0,0,0,0,0,0,0,0,0,0,-0.0207,-0.0369,-0.0149,-0.0077,-0.0069,0.0095,0.0101,0.0106,0.0196,0.0194,0.0191,0.0189,0.0499,0.0514,0.0529,0.0673,0,0,0.0575,0.0581,0,0,0,0,0,0,0,0,-0.0217,-0.0198,-0.009,-0.0082,-0.0073,0.0104,0.0137,0.0296,0.0197,0.0107,0.019,0.0187,0.0373,0.0399,0.0464,0.0688,0.0702,0.0576,0.0585,0.0591,0.0596,0,0,0,0,0,0,0,-0.0229,-0.0207,-0.0041,-0.0088,-0.0077,-0.0002,0.0018,0.0169,0.0261,0.0114,0.0119,0.013,0.038,0.045,0.0472,0.0706,0.0575,0.0589,0.0598,0.0604,0.0874,0.0872,0,0,0,0,0,0,-0.0285,-0.0218,-0.0049,-0.0034,-0.0165,0.0002,0.0026,0.0058,0.0258,0.0282,0.0132,0.0133,0.0425,0.0455,0.0484,0.0528,0.0591,0.0605,0.0614,0.0876,0.0874,0.0872,0,0,0,0,0,0,-0.029,-0.0271,-0.0059,-0.0131,-0.01,0.0006,0.0044,0.0064,0.0109,0.0269,0.0296,0.015,0.0424,0.0463,0.0608,0.0545,0.0612,0.0626,0.0878,0.0875,0.0873,0.0705,0,0,0,0,0,0,-0.0297,-0.0274,-0.0261,-0.0134,-0.0098,0.0015,0.0046,0.007,0.0116,0.012,0.0295,0.0323,0.0425,0.0584,0.0622,0.0567,0.0638,0.088,0.0877,0.0873,0.0713,0.0697,0.0684,0,0,0,0,0,-0.0305,-0.028,-0.0261,-0.0241,-0.0087,0.0015,0.0042,0.0115,0.0118,0.0146,0.0265,0.0316,0.0584,0.0599,0.0643,0.059,0.0882,0.0878,0.0874,0.072,0.07,0.0684,0,0,0,0,0,0,-0.0352,-0.0265,-0.0243,-0.0187,-0.0111,0.0025,0.0059,0.0103,0.0223,0.0227,0.0362,0.0401,0.048,0.0575,0.0585,0.0648,0.0715,0.072,0.0582,0.0566,0.0551,0.0497,0.065,0,0,0,0,0,-0.0364,-0.0332,-0.0235,-0.0191,-0.0162,-0.0057,-0.0008,0.0044,0.0157,0.0204,0.0319,0.0424,0.0506,0.0567,0.0673,0.0767,0.0804,0.0736,0.0721,0.0708,0.0689,0.0694,0.0677,0.0858,0.0858,0.0858,0,0,-0.0369,-0.0319,-0.0299,-0.0202,-0.0134,-0.0102,-0.0031,0.0038,0.0054,0.0227,0.03,0.0401,0.052,0.0592,0.0629,0.0663,0.0676,0.0703,0.0691,0.0679,0.0688,0.067,0.0654,0.0855,0.0856,0.0856,0,0,-0.0387,-0.0324,-0.0321,-0.0263,-0.0186,-0.0125,-0.0124,-0.0002,0.0037,0.014,0.022,0.0293,0.0462,0.0514,0.0561,0.0537,0.0597,0.054,0.0437,0.0441,0.0426,0.0413,0.0435,0.0425,0.0532,0.0532,0.0532,0,-0.041,-0.038,-0.03,-0.0285,-0.0257,-0.016,-0.0156,-0.0091,0.0059,0.0088,0.0129,0.03,0.0407,0.0445,0.0419,0.0499,0.052,0.0497,0.0419,0.0407,0.0397,0.0423,0.0415,0.0524,0.0525,0.0525,0.0526,0,-0.0434,-0.0407,-0.0396,-0.0366,-0.0322,-0.0285,-0.0215,-0.0169,-0.0121,-0.0057,0.0004,0.0153,0.0242,0.0255,0.0343,0.0304,0.0348,0.0397,0.0458,0.0368,0.0402,0.0396,0.0511,0.0514,0.0517,0.0519,0,0,-0.0498,-0.0434,-0.0432,-0.0428,-0.036,-0.032,-0.0316,-0.027,-0.027,-0.0167,-0.0163,-0.0054,0.0016,0.007,0.0162,0.0164,0.0117,0.0235,0.0239,0.0246,0.0127,0.022,0.0224,0.0145,0.0143,0.0142,0.018,0,-0.0551,-0.0548,-0.0507,-0.051,-0.05,-0.043,-0.0429,-0.0375,-0.032,-0.028,-0.0199,-0.0137,-0.0058,-0.0013,-0.001,0.0104,0.0093,0.0103,0.0224,0.0228,0.0312,0.0217,0.0247,0.0288,0.0175,0.0174,0.0173,0,-0.0606,-0.0591,-0.0605,-0.0573,-0.0567,-0.0564,-0.0543,-0.0522,-0.0464,-0.0417,-0.0373,-0.0284,-0.0245,-0.0173,-0.009,-0.0089,-0.0012,0.0057,0.0061,0.02,0.0309,0.0362,0.0283,0.0347,0.0166,0.0166,0.0167,0,-0.0682,-0.0664,-0.0682,-0.0664,-0.0619,-0.0626,-0.0611,-0.0562,-0.0541,-0.0502,-0.0471,-0.0419,-0.0349,-0.0299,-0.0121,-0.0124,-0.0024,0.0001,0.0145,0.0154,0.0231,0.025,0.0219,0.0013,0.0012,0.0012,0.0012,0,-0.0741,-0.0749,-0.0715,-0.0709,-0.073,-0.0685,-0.0701,-0.067,-0.0635,-0.0583,-0.0539,-0.0475,-0.038,-0.0278,-0.0177,-0.0012,-0.0063,0.0101,0.0155,0.0176,0.0189,0.0296,0.0326,0.0014,0.0014,0.0013,0.0013,0,-0.0793,-0.0777,-0.0784,-0.0759,-0.0756,-0.0764,-0.074,-0.0742,-0.0701,-0.0638,-0.0625,-0.0523,-0.038,-0.0261,-0.0123,-0.0037,0.0145,0.0158,0.0191,0.0247,0.0408,0.0428,0.0469,0.0546,0.0265,0.0267,0.0269,0,-0.081,-0.0819,-0.0813,-0.0822,-0.0809,-0.0813,-0.0813,-0.0778,-0.0741,-0.0622,-0.0574,-0.0451,-0.0279,-0.007,0.0062,0.0217,0.0276,0.0331,0.0318,0.0395,0.0458,0.046,0.0522,0.0353,0.0355,0.0357,0.0359,0,-0.0828,-0.0833,-0.0832,-0.0855,-0.0864,-0.085,-0.0818,-0.076,-0.0667,-0.0551,-0.0328,-0.0198,-0.0051,0.0146,0.0287,0.037,0.0382,0.0379,0.0432,0.0489,0.0513,0.0623,0.0365,0.0377,0.0375,0.0374,0.0373,0.0372,-0.0833,-0.0845,-0.0856,-0.0873,-0.088,-0.0801,-0.0686,-0.0591,-0.041,-0.0083,-0.0039,0.0275,0.0299,0.0502,0.0538,0.0602,0.0567,0.063,0.0639,0.0627,0.0717,0.0513,0.0611,0.0611,0.061,0.061,0.061,0,-0.0821,-0.084,-0.0869,-0.0832,-0.0782,-0.0794,-0.0631,-0.0431,-0.0081,0.0182,0.0492,0.0819,0.0867,0.0828,0.0822,0.0861,0.0845,0.0872,0.0847,0.0893,0.0685,0.0706,0.0862,0.0862,0.0862,0.0861,0.0861,0.0861,-0.0813,-0.0836,-0.0853,-0.0741,-0.0675,-0.0467,-0.0296,0.0005,0.0261,0.0813,0.1136,0.1328,0.1263,0.1096,0.1046,0.1043,0.1116,0.1073,0.1135,0.0951,0.0927,0.0905,0.0929,0.1129,0.113,0.134,0.1341,0.1343]}],[{"header":{"parameterUnit":"m.s-1","parameterCategory":2,"la1":30.2991,"la2":30.254,"lo1":-89.0895,"lo2":-89.0444,"dy":0.0017,"dx":0.0017,"nx":28,"ny":28,"refTime":"2024-02-15T03:00:00:Z","depth":"2","parameterNumber":2,"parameterNumberName":"U-component_of_CURRENTS"},"data":[0,0,0,0,0,0,0,0,0,0,0,0,0,0,0,0,0,0,0,0,0,0,0,0,0,0,0,0,0,0,0,0,0,0,0,0,0,0,0,0,0,0,0,0,0,0,0,0,0,0,0,0,0,0,0,0,0,0,-0.169,-0.1691,0,-0.1705,-0.1705,-0.1706,-0.1712,-0.1712,-0.1712,-0.1711,-0.18,-0.1802,-0.1805,0,0,0,0,0,0,0,0,0,0,0,0,0,-0.1688,-0.1688,-0.169,-0.1691,-0.1691,-0.1705,-0.1705,-0.1706,-0.1712,-0.1712,-0.1711,-0.1711,-0.1799,-0.1802,-0.1805,0,0,0,0,0,0,0,0,0,0,0,0,0,-0.1696,-0.1688,-0.169,-0.1695,-0.1695,-0.1705,-0.1705,-0.1706,-0.1712,-0.1712,-0.1711,-0.1711,-0.1798,-0.1802,-0.1805,-0.1832,0,0,-0.1817,-0.1818,0,0,0,0,0,0,0,0,-0.1695,-0.1696,-0.1694,-0.1694,-0.1695,-0.1705,-0.1737,-0.1751,-0.1712,-0.1707,-0.1711,-0.1711,-0.1775,-0.178,-0.1784,-0.1836,-0.184,-0.1817,-0.1819,-0.1821,-0.1822,0,0,0,0,0,0,0,-0.1695,-0.1695,-0.1697,-0.1694,-0.1695,-0.1703,-0.1703,-0.174,-0.1744,-0.1707,-0.1707,-0.1707,-0.1775,-0.178,-0.1786,-0.1841,-0.1817,-0.182,-0.1823,-0.1824,-0.1945,-0.1946,0,0,0,0,0,0,-0.169,-0.1695,-0.1697,-0.1698,-0.1693,-0.1703,-0.1704,-0.1703,-0.1742,-0.1747,-0.1707,-0.1707,-0.1774,-0.1782,-0.1789,-0.182,-0.1821,-0.1824,-0.1826,-0.1944,-0.1945,-0.1946,0,0,0,0,0,0,-0.169,-0.169,-0.1696,-0.1696,-0.1697,-0.1703,-0.1702,-0.1704,-0.173,-0.1741,-0.1747,-0.1734,-0.1774,-0.1784,-0.1824,-0.1823,-0.1826,-0.1829,-0.1943,-0.1944,-0.1946,-0.1883,0,0,0,0,0,0,-0.169,-0.169,-0.1693,-0.1695,-0.1697,-0.1715,-0.1702,-0.1704,-0.1728,-0.1729,-0.1766,-0.1772,-0.1775,-0.1818,-0.1827,-0.1828,-0.1832,-0.1941,-0.1943,-0.1945,-0.1884,-0.1882,-0.1881,0,0,0,0,0,-0.169,-0.1696,-0.1693,-0.1693,-0.1699,-0.1716,-0.1719,-0.1722,-0.173,-0.1745,-0.176,-0.1773,-0.1837,-0.1821,-0.1832,-0.1834,-0.1941,-0.1943,-0.1945,-0.1884,-0.1882,-0.1881,0,0,0,0,0,0,-0.1699,-0.1698,-0.1694,-0.17,-0.1712,-0.1717,-0.1729,-0.174,-0.1764,-0.1761,-0.1784,-0.1792,-0.1831,-0.1851,-0.1835,-0.1879,-0.1892,-0.1897,-0.1843,-0.1841,-0.184,-0.179,-0.1835,0,0,0,0,0,-0.1701,-0.17,-0.1708,-0.1712,-0.1721,-0.1732,-0.1743,-0.1741,-0.1758,-0.1769,-0.1786,-0.1813,-0.1846,-0.1858,-0.189,-0.1913,-0.1899,-0.1926,-0.1924,-0.1922,-0.1892,-0.1866,-0.1857,-0.1953,-0.1953,-0.1953,0,0,-0.1698,-0.1701,-0.1698,-0.1713,-0.1721,-0.1731,-0.1739,-0.1751,-0.1753,-0.1777,-0.1789,-0.1817,-0.1858,-0.1874,-0.1893,-0.1889,-0.1894,-0.1925,-0.1923,-0.1893,-0.1867,-0.1857,-0.1848,-0.1955,-0.1955,-0.1954,0,0,-0.1697,-0.1706,-0.1707,-0.1719,-0.173,-0.1737,-0.175,-0.1759,-0.1762,-0.179,-0.1796,-0.1795,-0.1879,-0.1849,-0.1866,-0.1878,-0.1897,-0.1932,-0.1866,-0.1841,-0.1831,-0.1823,-0.1801,-0.1791,-0.1916,-0.1916,-0.1916,0,-0.1695,-0.1695,-0.1713,-0.1722,-0.1723,-0.1747,-0.1749,-0.1761,-0.1774,-0.1767,-0.1795,-0.1835,-0.1848,-0.1836,-0.1827,-0.1865,-0.1876,-0.1863,-0.1833,-0.1824,-0.1816,-0.1796,-0.1785,-0.1913,-0.1914,-0.1914,-0.1914,0,-0.1693,-0.1695,-0.1703,-0.1713,-0.1726,-0.173,-0.1744,-0.1751,-0.1771,-0.177,-0.1779,-0.1781,-0.1791,-0.1806,-0.182,-0.1777,-0.1813,-0.184,-0.1822,-0.1801,-0.1784,-0.1773,-0.1909,-0.191,-0.1911,-0.1912,0,0,-0.1672,-0.1694,-0.1694,-0.1693,-0.1714,-0.1722,-0.1729,-0.1731,-0.1728,-0.1739,-0.1727,-0.1731,-0.1719,-0.1732,-0.1737,-0.1694,-0.1632,-0.1741,-0.1741,-0.1691,-0.1598,-0.1513,-0.1495,-0.1676,-0.1673,-0.1672,-0.161,0,-0.1659,-0.1667,-0.168,-0.168,-0.1684,-0.1699,-0.1705,-0.1705,-0.1721,-0.1716,-0.1695,-0.1702,-0.1703,-0.1702,-0.1656,-0.166,-0.1604,-0.1646,-0.165,-0.1649,-0.1552,-0.1478,-0.1383,-0.1311,-0.1601,-0.1599,-0.1598,0,-0.1642,-0.1652,-0.1648,-0.1654,-0.1658,-0.1662,-0.1663,-0.1668,-0.1664,-0.1675,-0.1654,-0.1668,-0.1601,-0.162,-0.1551,-0.1598,-0.1575,-0.1564,-0.1563,-0.1487,-0.1543,-0.1381,-0.1281,-0.1581,-0.1582,-0.1583,-0.1585,0,-0.1606,-0.1621,-0.1614,-0.1617,-0.1636,-0.1631,-0.1642,-0.1645,-0.1642,-0.1636,-0.1636,-0.1599,-0.1576,-0.1547,-0.1509,-0.1548,-0.1444,-0.1499,-0.1388,-0.1384,-0.1296,-0.1286,-0.1415,-0.1415,-0.1415,-0.1415,-0.1416,0,-0.1573,-0.1568,-0.1598,-0.1593,-0.1581,-0.1607,-0.1591,-0.1599,-0.1604,-0.1584,-0.16,-0.1569,-0.1561,-0.1515,-0.1492,-0.1389,-0.1424,-0.1334,-0.134,-0.1275,-0.1265,-0.1502,-0.1513,-0.1413,-0.1414,-0.1414,-0.1415,0,-0.1518,-0.1542,-0.1532,-0.1554,-0.1558,-0.1547,-0.156,-0.1555,-0.157,-0.1544,-0.1541,-0.1537,-0.147,-0.1441,-0.1381,-0.1343,-0.1274,-0.1226,-0.1144,-0.1139,-0.1243,-0.1253,-0.1102,-0.1098,-0.1095,-0.1092,-0.109,0,-0.1487,-0.1477,-0.1491,-0.1486,-0.1491,-0.149,-0.149,-0.1522,-0.1516,-0.1508,-0.1487,-0.1436,-0.1365,-0.1244,-0.1159,-0.1068,-0.1152,-0.0942,-0.0958,-0.1178,-0.1201,-0.1216,-0.1229,-0.0838,-0.0834,-0.083,-0.0827,0,-0.1415,-0.142,-0.1414,-0.1406,-0.1406,-0.1402,-0.1407,-0.1399,-0.1425,-0.1408,-0.1355,-0.1302,-0.1175,-0.1016,-0.09,-0.0853,-0.0953,-0.0866,-0.1096,-0.0927,-0.0921,-0.0947,-0.097,-0.0797,-0.08,-0.0802,-0.0804,-0.0805,-0.1349,-0.1325,-0.1317,-0.1299,-0.1305,-0.1289,-0.1245,-0.1263,-0.1231,-0.1169,-0.1199,-0.108,-0.1013,-0.0766,-0.0678,-0.0613,-0.0696,-0.0683,-0.0697,-0.0714,-0.0689,-0.0677,-0.0502,-0.0503,-0.0505,-0.0506,-0.0507,0,-0.1246,-0.1229,-0.1213,-0.1177,-0.114,-0.1181,-0.1163,-0.1106,-0.103,-0.1003,-0.0936,-0.0783,-0.0642,-0.0585,-0.0411,-0.0359,-0.0398,-0.036,-0.0421,-0.045,-0.0476,-0.0443,-0.0189,-0.0188,-0.0187,-0.0187,0,0,-0.1186,-0.1128,-0.1119,-0.1012,-0.0992,-0.0902,-0.0868,-0.0818,-0.0774,-0.0679,-0.0613,-0.0626,-0.0578,-0.0405,-0.0332,-0.0229,-0.0352,-0.0214,-0.0467,-0.0569,-0.0595,-0.0651,-0.0629,0,0,0,0,0]},{"header":{"parameterUnit":"m.s-1","parameterCategory":2,"la1":30.2991,"la2":30.254,"lo1":-89.0895,"lo2":-89.0444,"dy":0.0017,"dx":0.0017,"nx":28,"ny":28,"refTime":"2024-02-15T03:00:00:Z","depth":"2","parameterNumber":3,"parameterNumberName":"V-component_of_CURRENTS"},"data":[0,0,0,0,0,0,0,0,0,0,0,0,0,0,0,0,0,0,0,0,0,0,0,0,0,0,0,0,0,0,0,0,0,0,0,0,0,0,0,0,0,0,0,0,0,0,0,0,0,0,0,0,0,0,0,0,0,0,-0.0588,-0.0587,0,-0.055,-0.0549,-0.0549,-0.0509,-0.0509,-0.0509,-0.0508,-0.0405,-0.0403,-0.04,0,0,0,0,0,0,0,0,0,0,0,0,0,-0.0576,-0.0577,-0.0588,-0.0587,-0.0587,-0.055,-0.0549,-0.0549,-0.0509,-0.0509,-0.0508,-0.0508,-0.0406,-0.0403,-0.04,0,0,0,0,0,0,0,0,0,0,0,0,0,-0.0562,-0.0577,-0.0588,-0.0565,-0.0562,-0.055,-0.0549,-0.0548,-0.0509,-0.0509,-0.0508,-0.0508,-0.0407,-0.0403,-0.04,-0.0388,0,0,-0.0388,-0.0387,0,0,0,0,0,0,0,0,-0.0563,-0.0562,-0.0568,-0.0566,-0.0564,-0.0536,-0.0508,-0.0492,-0.051,-0.0527,-0.0508,-0.0508,-0.0444,-0.0438,-0.043,-0.0383,-0.0378,-0.0388,-0.0386,-0.0384,-0.0383,0,0,0,0,0,0,0,-0.0564,-0.0564,-0.0571,-0.0568,-0.0565,-0.0539,-0.0537,-0.0504,-0.0486,-0.0526,-0.0523,-0.0523,-0.0442,-0.0433,-0.0427,-0.0377,-0.0388,-0.0385,-0.0383,-0.0381,-0.0299,-0.0299,0,0,0,0,0,0,-0.0577,-0.0565,-0.0572,-0.057,-0.0565,-0.054,-0.0538,-0.0543,-0.0488,-0.048,-0.0523,-0.0521,-0.044,-0.0431,-0.0423,-0.0375,-0.0384,-0.0381,-0.0379,-0.0299,-0.0299,-0.0299,0,0,0,0,0,0,-0.0577,-0.0578,-0.0573,-0.0567,-0.0565,-0.0542,-0.0548,-0.0543,-0.053,-0.0487,-0.0478,-0.0515,-0.0439,-0.0428,-0.0419,-0.0372,-0.0379,-0.0376,-0.0299,-0.0299,-0.0299,-0.0298,0,0,0,0,0,0,-0.0576,-0.0578,-0.0586,-0.0569,-0.0566,-0.0564,-0.0549,-0.0543,-0.0531,-0.0528,-0.0477,-0.0467,-0.0438,-0.0426,-0.0416,-0.0367,-0.0373,-0.0299,-0.0299,-0.0299,-0.0298,-0.0298,-0.0298,0,0,0,0,0,-0.0576,-0.059,-0.0587,-0.0588,-0.0579,-0.0565,-0.056,-0.054,-0.0532,-0.0526,-0.0515,-0.0469,-0.0417,-0.0424,-0.0412,-0.036,-0.0299,-0.0299,-0.0299,-0.0298,-0.0298,-0.0298,0,0,0,0,0,0,-0.0591,-0.0587,-0.0583,-0.0596,-0.0581,-0.0559,-0.0555,-0.0542,-0.0527,-0.053,-0.0487,-0.0477,-0.0438,-0.0419,-0.0428,-0.034,-0.0341,-0.0339,-0.0345,-0.0344,-0.0344,-0.0355,-0.037,0,0,0,0,0,-0.06,-0.0609,-0.0595,-0.0605,-0.0598,-0.0577,-0.0569,-0.0559,-0.0545,-0.0538,-0.0504,-0.0471,-0.0429,-0.0409,-0.0373,-0.0343,-0.0323,-0.0298,-0.0298,-0.0298,-0.0302,-0.0251,-0.0246,-0.0299,-0.0299,-0.0299,0,0,-0.061,-0.0609,-0.0614,-0.0609,-0.0595,-0.0584,-0.057,-0.0564,-0.0549,-0.0529,-0.05,-0.0468,-0.0423,-0.0382,-0.036,-0.0361,-0.0275,-0.0298,-0.0298,-0.0302,-0.0251,-0.0245,-0.0241,-0.0299,-0.0299,-0.0299,0,0,-0.0624,-0.063,-0.0634,-0.0623,-0.0612,-0.0597,-0.0596,-0.0574,-0.0555,-0.0541,-0.0508,-0.0474,-0.0418,-0.0375,-0.0345,-0.033,-0.0275,-0.0296,-0.03,-0.0251,-0.0246,-0.0242,-0.0216,-0.0209,-0.0297,-0.0297,-0.0297,0,-0.0633,-0.0638,-0.0632,-0.0627,-0.0617,-0.0602,-0.0593,-0.0574,-0.0553,-0.0533,-0.0535,-0.0446,-0.0411,-0.0343,-0.0337,-0.0323,-0.0298,-0.03,-0.025,-0.0245,-0.024,-0.0214,-0.0206,-0.0297,-0.0297,-0.0297,-0.0297,0,-0.0643,-0.0643,-0.0643,-0.063,-0.062,-0.0615,-0.0589,-0.0573,-0.0554,-0.0527,-0.047,-0.0438,-0.0384,-0.0351,-0.034,-0.027,-0.0265,-0.0252,-0.0248,-0.0234,-0.0209,-0.02,-0.0297,-0.0297,-0.0297,-0.0297,0,0,-0.0669,-0.0652,-0.0652,-0.0642,-0.0622,-0.0615,-0.0589,-0.0552,-0.0529,-0.0496,-0.0455,-0.0388,-0.0368,-0.0336,-0.0299,-0.0261,-0.0209,-0.0246,-0.0244,-0.0217,-0.011,-0.0098,-0.0088,-0.0179,-0.0178,-0.0176,-0.0108,0,-0.0672,-0.0666,-0.0654,-0.0641,-0.0631,-0.0607,-0.0582,-0.0551,-0.0518,-0.0477,-0.0425,-0.0378,-0.0358,-0.0335,-0.0289,-0.0228,-0.0187,-0.023,-0.0131,-0.0129,-0.0115,-0.0078,-0.0082,-0.0021,-0.01,-0.0099,-0.0098,0,-0.0682,-0.0675,-0.0666,-0.0639,-0.0632,-0.0624,-0.0582,-0.056,-0.0499,-0.0472,-0.0418,-0.0379,-0.0314,-0.0309,-0.0197,-0.0223,-0.0169,-0.0128,-0.0123,-0.0107,-0.0101,-0.0046,-0.0003,-0.0084,-0.0085,-0.0086,-0.0087,0,-0.0701,-0.0681,-0.0675,-0.0668,-0.0638,-0.0626,-0.0608,-0.0558,-0.0534,-0.0473,-0.045,-0.0367,-0.0329,-0.0249,-0.0167,-0.0176,-0.0051,-0.0051,0.0012,0.0013,0.003,0.0029,0.0033,0.0033,0.0033,0.0033,0.0033,0,-0.0709,-0.0703,-0.0686,-0.0684,-0.0676,-0.0648,-0.0629,-0.0597,-0.055,-0.0513,-0.0454,-0.0407,-0.0311,-0.0228,-0.0159,-0.0047,-0.0038,0.002,0.0041,0.0028,0.0027,-0.0015,-0.0022,0.0036,0.0035,0.0035,0.0034,0,-0.0729,-0.0718,-0.0712,-0.0691,-0.0687,-0.0684,-0.0658,-0.0642,-0.0593,-0.0545,-0.0528,-0.043,-0.032,-0.0222,-0.009,-0.0035,0.0065,0.0105,0.007,0.0086,0.0088,0.0081,0.0176,0.0177,0.0178,0.0179,0.018,0,-0.0734,-0.0735,-0.0731,-0.0737,-0.073,-0.0723,-0.0719,-0.0674,-0.0648,-0.055,-0.0524,-0.0413,-0.0318,-0.0133,-0.001,0.0119,0.0113,0.0179,0.0164,0.0097,0.0108,0.0099,0.009,0.0182,0.0182,0.0183,0.0183,0,-0.0743,-0.0748,-0.0748,-0.0767,-0.0772,-0.077,-0.0752,-0.0735,-0.0667,-0.0617,-0.0518,-0.0437,-0.0245,-0.009,0.0074,0.0144,0.0153,0.0194,0.0163,0.0141,0.0107,0.0116,0.0106,0.0188,0.0188,0.0187,0.0187,0.0187,-0.0749,-0.0762,-0.0774,-0.079,-0.0802,-0.0803,-0.0789,-0.0758,-0.0713,-0.0605,-0.0532,-0.0388,-0.0234,0.0012,0.0129,0.0232,0.022,0.0237,0.0234,0.023,0.0213,0.0183,0.0274,0.0274,0.0274,0.0274,0.0274,0,-0.075,-0.0769,-0.0792,-0.081,-0.0829,-0.0828,-0.08,-0.0763,-0.0704,-0.0596,-0.0502,-0.0314,-0.014,0.0025,0.0201,0.029,0.0276,0.0296,0.0263,0.0258,0.0254,0.0236,0.0304,0.0305,0.0305,0.0305,0,0,-0.0748,-0.0771,-0.0789,-0.0824,-0.084,-0.0834,-0.0811,-0.0751,-0.0661,-0.0536,-0.0423,-0.0311,-0.0109,0.0014,0.0136,0.0234,0.0216,0.0236,0.0202,0.0144,0.0139,0.0211,0.0178,0,0,0,0,0]}],[{"header":{"parameterUnit":"m.s-1","parameterCategory":2,"la1":30.2991,"la2":30.254,"lo1":-89.0895,"lo2":-89.0444,"dy":0.0017,"dx":0.0017,"nx":28,"ny":28,"refTime":"2024-02-15T03:00:00:Z","depth":"4","parameterNumber":2,"parameterNumberName":"U-component_of_CURRENTS"},"data":[0,0,0,0,0,0,0,0,0,0,0,0,0,0,0,0,0,0,0,0,0,0,0,0,0,0,0,0,0,0,0,0,0,0,0,0,0,0,0,0,0,0,0,0,0,0,0,0,0,0,0,0,0,0,0,0,0,0,-0.1054,-0.1054,0,-0.107,-0.107,-0.107,-0.1097,-0.1098,-0.1099,-0.1099,-0.1144,-0.1145,-0.1145,0,0,0,0,0,0,0,0,0,0,0,0,0,-0.1053,-0.1053,-0.1054,-0.1054,-0.1054,-0.107,-0.107,-0.107,-0.1097,-0.1098,-0.1099,-0.11,-0.1144,-0.1145,-0.1146,0,0,0,0,0,0,0,0,0,0,0,0,0,-0.1058,-0.1053,-0.1054,-0.1071,-0.1073,-0.107,-0.107,-0.107,-0.1097,-0.1098,-0.1099,-0.11,-0.1144,-0.1145,-0.1146,-0.1131,0,0,-0.1148,-0.1149,0,0,0,0,0,0,0,0,-0.1058,-0.1058,-0.1068,-0.107,-0.1072,-0.1084,-0.1086,-0.1092,-0.1097,-0.1086,-0.1099,-0.1101,-0.1127,-0.1129,-0.1128,-0.1133,-0.1135,-0.1148,-0.1149,-0.1149,-0.1149,0,0,0,0,0,0,0,-0.1057,-0.1057,-0.1058,-0.1068,-0.1071,-0.108,-0.1082,-0.1087,-0.11,-0.1087,-0.109,-0.1094,-0.1128,-0.1127,-0.1129,-0.1136,-0.1148,-0.1149,-0.115,-0.115,-0.1158,-0.1157,0,0,0,0,0,0,-0.1057,-0.1057,-0.1058,-0.1059,-0.1069,-0.108,-0.1081,-0.1078,-0.11,-0.1104,-0.1093,-0.1095,-0.1125,-0.1128,-0.1131,-0.1158,-0.1149,-0.115,-0.1151,-0.1158,-0.1158,-0.1157,0,0,0,0,0,0,-0.1057,-0.1056,-0.1057,-0.106,-0.1061,-0.1079,-0.1074,-0.1078,-0.1095,-0.1104,-0.1109,-0.111,-0.1126,-0.1129,-0.1147,-0.1158,-0.115,-0.1151,-0.1158,-0.1158,-0.1158,-0.1184,0,0,0,0,0,0,-0.1056,-0.1056,-0.1061,-0.106,-0.1061,-0.1061,-0.1074,-0.1077,-0.1096,-0.1099,-0.1119,-0.1123,-0.1127,-0.1146,-0.1148,-0.1159,-0.1152,-0.1159,-0.1158,-0.1158,-0.1183,-0.1184,-0.1185,0,0,0,0,0,-0.1056,-0.1057,-0.1061,-0.1062,-0.1064,-0.1062,-0.1063,-0.1078,-0.1096,-0.1099,-0.1116,-0.1124,-0.1143,-0.1146,-0.1149,-0.1161,-0.1159,-0.1158,-0.1158,-0.1183,-0.1184,-0.1185,0,0,0,0,0,0,-0.1057,-0.106,-0.1064,-0.1066,-0.1067,-0.1067,-0.1078,-0.1086,-0.1101,-0.1115,-0.1124,-0.1129,-0.1145,-0.1145,-0.1148,-0.1158,-0.1151,-0.115,-0.1169,-0.117,-0.1171,-0.118,-0.1153,0,0,0,0,0,-0.1059,-0.1064,-0.1062,-0.1065,-0.1069,-0.1076,-0.1083,-0.109,-0.11,-0.1109,-0.1127,-0.1138,-0.1139,-0.115,-0.1151,-0.1162,-0.1157,-0.1168,-0.1169,-0.117,-0.1177,-0.1185,-0.1188,-0.1155,-0.1155,-0.1155,0,0,-0.1059,-0.1063,-0.1066,-0.1067,-0.1073,-0.108,-0.1083,-0.1095,-0.1107,-0.1111,-0.1144,-0.1144,-0.1141,-0.1151,-0.1158,-0.1158,-0.1171,-0.1169,-0.117,-0.1176,-0.1184,-0.1188,-0.1191,-0.1155,-0.1155,-0.1155,0,0,-0.1062,-0.1067,-0.1074,-0.1077,-0.109,-0.1094,-0.1101,-0.1112,-0.1126,-0.1146,-0.1148,-0.1158,-0.1173,-0.1169,-0.1167,-0.1173,-0.1172,-0.1171,-0.1192,-0.12,-0.1203,-0.1206,-0.1184,-0.1185,-0.1176,-0.1176,-0.1176,0,-0.1066,-0.1072,-0.1075,-0.1083,-0.1095,-0.1103,-0.1116,-0.1122,-0.114,-0.1155,-0.1164,-0.1184,-0.1181,-0.1186,-0.1183,-0.1178,-0.1173,-0.1192,-0.1203,-0.1206,-0.1208,-0.1185,-0.1186,-0.1177,-0.1177,-0.1177,-0.1177,0,-0.1068,-0.1082,-0.1088,-0.1104,-0.1114,-0.1126,-0.1135,-0.1154,-0.1179,-0.1189,-0.1213,-0.1209,-0.1222,-0.1215,-0.1203,-0.1213,-0.1199,-0.1202,-0.1206,-0.1214,-0.1188,-0.1188,-0.1179,-0.1178,-0.1178,-0.1178,0,0,-0.1056,-0.1086,-0.109,-0.1109,-0.113,-0.1138,-0.1162,-0.1183,-0.1207,-0.1228,-0.1257,-0.1252,-0.1258,-0.1255,-0.1241,-0.1244,-0.1244,-0.1234,-0.1233,-0.1221,-0.1244,-0.1127,-0.1115,-0.1257,-0.1258,-0.1259,-0.1212,0,-0.1062,-0.1088,-0.1102,-0.1133,-0.1149,-0.117,-0.1191,-0.1213,-0.1236,-0.1263,-0.1267,-0.1283,-0.127,-0.1276,-0.1279,-0.1252,-0.1249,-0.1255,-0.123,-0.1229,-0.1132,-0.1113,-0.1261,-0.1212,-0.1212,-0.1212,-0.1212,0,-0.1056,-0.1081,-0.1113,-0.1158,-0.1168,-0.1191,-0.1237,-0.1254,-0.1283,-0.1301,-0.1324,-0.1325,-0.1324,-0.1316,-0.1296,-0.1303,-0.1277,-0.1257,-0.1255,-0.114,-0.1112,-0.1206,-0.1213,-0.1213,-0.1213,-0.1213,-0.1212,0,-0.1044,-0.1088,-0.1121,-0.1134,-0.1181,-0.1211,-0.124,-0.1273,-0.1288,-0.1324,-0.1337,-0.1352,-0.1346,-0.1341,-0.1286,-0.1302,-0.1252,-0.1271,-0.114,-0.1131,-0.1243,-0.1241,-0.1262,-0.1262,-0.1262,-0.1262,-0.1263,0,-0.1033,-0.1062,-0.1125,-0.114,-0.1182,-0.1219,-0.1257,-0.1285,-0.132,-0.1321,-0.1354,-0.1341,-0.1354,-0.1321,-0.1294,-0.1194,-0.1258,-0.1132,-0.1111,-0.125,-0.1249,-0.1242,-0.124,-0.1261,-0.1261,-0.1261,-0.1262,0,-0.0999,-0.1043,-0.1083,-0.1151,-0.1173,-0.1202,-0.1256,-0.1274,-0.1315,-0.1316,-0.1325,-0.1331,-0.1275,-0.1257,-0.1219,-0.1171,-0.1112,-0.1062,-0.1181,-0.1169,-0.0988,-0.0989,-0.0929,-0.0924,-0.092,-0.0917,-0.0914,0,-0.0981,-0.1,-0.1077,-0.1098,-0.1131,-0.1179,-0.1202,-0.1261,-0.1265,-0.1283,-0.1266,-0.1237,-0.1219,-0.1062,-0.107,-0.0998,-0.0984,-0.0955,-0.1001,-0.0968,-0.0955,-0.0961,-0.0966,-0.0908,-0.0907,-0.0906,-0.0905,0,-0.0938,-0.0976,-0.1004,-0.1045,-0.1083,-0.1109,-0.1146,-0.1142,-0.1182,-0.1238,-0.1157,-0.1106,-0.1029,-0.0978,-0.0909,-0.0871,-0.0982,-0.0915,-0.0924,-0.0967,-0.0943,-0.0935,-0.0945,-0.0892,-0.0894,-0.0895,-0.0896,0,-0.0902,-0.0908,-0.0945,-0.0968,-0.1011,-0.1008,-0.1045,-0.1033,-0.1042,-0.1069,-0.1034,-0.0998,-0.1008,-0.0907,-0.0853,-0.079,-0.0792,-0.0782,-0.0798,-0.0813,-0.0793,-0.0747,-0.0606,0,0,0,0,0,-0.0851,-0.0839,-0.086,-0.087,-0.0909,-0.0924,-0.0982,-0.1019,-0.1065,-0.0977,-0.1,-0.0919,-0.0822,-0.0811,-0.0719,-0.0803,-0.0801,-0.0695,-0.0801,-0.0818,-0.0834,-0.082,0,0,0,0,0,0,-0.0812,-0.0824,-0.0824,-0.0775,-0.0761,-0.0783,-0.0816,-0.0857,-0.0812,-0.0864,-0.0811,-0.085,-0.0768,-0.0837,-0.0689,-0.0685,-0.0731,-0.0687,-0.0684,-0.081,-0.0823,-0.0836,-0.0827,0,0,0,0,0]},{"header":{"parameterUnit":"m.s-1","parameterCategory":2,"la1":30.2991,"la2":30.254,"lo1":-89.0895,"lo2":-89.0444,"dy":0.0017,"dx":0.0017,"nx":28,"ny":28,"refTime":"2024-02-15T03:00:00:Z","depth":"4","parameterNumber":3,"parameterNumberName":"V-component_of_CURRENTS"},"data":[0,0,0,0,0,0,0,0,0,0,0,0,0,0,0,0,0,0,0,0,0,0,0,0,0,0,0,0,0,0,0,0,0,0,0,0,0,0,0,0,0,0,0,0,0,0,0,0,0,0,0,0,0,0,0,0,0,0,-0.046,-0.046,0,-0.0471,-0.0471,-0.0472,-0.0467,-0.0467,-0.0467,-0.0466,-0.0457,-0.0457,-0.0457,0,0,0,0,0,0,0,0,0,0,0,0,0,-0.0426,-0.0427,-0.046,-0.046,-0.046,-0.0471,-0.0471,-0.0472,-0.0467,-0.0467,-0.0466,-0.0466,-0.0457,-0.0457,-0.0457,0,0,0,0,0,0,0,0,0,0,0,0,0,-0.044,-0.0427,-0.046,-0.0458,-0.0458,-0.0471,-0.0471,-0.0472,-0.0467,-0.0467,-0.0466,-0.0466,-0.0457,-0.0457,-0.0457,-0.0468,0,0,-0.0457,-0.0458,0,0,0,0,0,0,0,0,-0.0439,-0.0441,-0.0459,-0.0459,-0.0459,-0.0466,-0.0456,-0.0469,-0.0467,-0.0465,-0.0466,-0.0466,-0.0458,-0.0458,-0.0463,-0.0468,-0.0467,-0.0457,-0.0458,-0.0458,-0.0458,0,0,0,0,0,0,0,-0.0438,-0.0441,-0.0465,-0.0459,-0.0459,-0.0454,-0.0456,-0.0459,-0.0464,-0.0465,-0.0465,-0.0465,-0.0458,-0.0463,-0.0463,-0.0467,-0.0457,-0.0458,-0.0458,-0.0458,-0.0479,-0.0479,0,0,0,0,0,0,-0.0436,-0.044,-0.0465,-0.0465,-0.0446,-0.0455,-0.0457,-0.0465,-0.0465,-0.0464,-0.0465,-0.0464,-0.0463,-0.0462,-0.0462,-0.0459,-0.0458,-0.0458,-0.0458,-0.0478,-0.0479,-0.0479,0,0,0,0,0,0,-0.0436,-0.0439,-0.0464,-0.0452,-0.0454,-0.0456,-0.0465,-0.0466,-0.0477,-0.0465,-0.0464,-0.0477,-0.0462,-0.0462,-0.0471,-0.0459,-0.0458,-0.0458,-0.0478,-0.0478,-0.0479,-0.0463,0,0,0,0,0,0,-0.0435,-0.0439,-0.0451,-0.0452,-0.0455,-0.0473,-0.0466,-0.0466,-0.0477,-0.0477,-0.0475,-0.0473,-0.0462,-0.0471,-0.0471,-0.0459,-0.0458,-0.0477,-0.0478,-0.0479,-0.0463,-0.0463,-0.0463,0,0,0,0,0,-0.0434,-0.045,-0.0452,-0.0455,-0.047,-0.0473,-0.0475,-0.0474,-0.0479,-0.0484,-0.0486,-0.0474,-0.0477,-0.0472,-0.0472,-0.0459,-0.0476,-0.0478,-0.0479,-0.0463,-0.0463,-0.0463,0,0,0,0,0,0,-0.0445,-0.0451,-0.0453,-0.0472,-0.0473,-0.0472,-0.048,-0.0483,-0.0491,-0.0495,-0.0485,-0.0483,-0.0485,-0.0485,-0.048,-0.0471,-0.0473,-0.0474,-0.0461,-0.0461,-0.0461,-0.0429,-0.0458,0,0,0,0,0,-0.0453,-0.0468,-0.0467,-0.0484,-0.0484,-0.0486,-0.0491,-0.0492,-0.0495,-0.0499,-0.0494,-0.0493,-0.049,-0.0486,-0.0486,-0.0486,-0.0457,-0.0478,-0.0478,-0.0478,-0.0454,-0.0396,-0.0387,-0.0483,-0.0483,-0.0483,0,0,-0.0463,-0.0468,-0.0478,-0.0487,-0.0489,-0.0487,-0.0488,-0.0499,-0.0496,-0.0497,-0.0496,-0.0498,-0.0494,-0.0488,-0.0488,-0.0484,-0.0444,-0.048,-0.0479,-0.0455,-0.0395,-0.0386,-0.0377,-0.0484,-0.0483,-0.0483,0,0,-0.0476,-0.0493,-0.0501,-0.0501,-0.0506,-0.0503,-0.0508,-0.0509,-0.0507,-0.0515,-0.0508,-0.0493,-0.0508,-0.0476,-0.047,-0.0472,-0.0451,-0.0492,-0.0456,-0.0401,-0.0391,-0.0382,-0.0359,-0.0348,-0.0485,-0.0485,-0.0485,0,-0.0486,-0.0497,-0.0504,-0.0505,-0.0504,-0.0509,-0.0508,-0.0508,-0.0511,-0.0499,-0.0514,-0.0493,-0.0488,-0.045,-0.045,-0.0465,-0.0451,-0.0453,-0.0396,-0.0387,-0.0378,-0.0356,-0.0344,-0.0484,-0.0485,-0.0485,-0.0485,0,-0.0495,-0.0504,-0.0509,-0.0509,-0.0509,-0.0514,-0.0506,-0.0505,-0.0509,-0.0497,-0.0475,-0.0464,-0.0439,-0.0443,-0.0448,-0.0387,-0.0405,-0.0406,-0.0387,-0.0366,-0.0347,-0.0334,-0.0484,-0.0484,-0.0484,-0.0484,0,0,-0.0511,-0.0513,-0.0516,-0.0512,-0.0512,-0.0512,-0.0502,-0.0482,-0.0466,-0.046,-0.0427,-0.0406,-0.0391,-0.0382,-0.0377,-0.0327,-0.0262,-0.0342,-0.034,-0.0304,-0.0165,-0.0197,-0.0187,-0.0257,-0.0255,-0.0253,-0.0185,0,-0.0512,-0.0516,-0.0514,-0.0512,-0.051,-0.0502,-0.049,-0.0473,-0.0459,-0.0429,-0.0393,-0.0373,-0.0373,-0.0365,-0.0309,-0.0282,-0.0225,-0.0281,-0.0203,-0.02,-0.0216,-0.0171,-0.0244,-0.0176,-0.0173,-0.0171,-0.017,0,-0.0515,-0.0517,-0.0519,-0.0507,-0.0504,-0.0504,-0.0476,-0.0466,-0.0418,-0.0405,-0.0357,-0.0341,-0.0271,-0.0281,-0.0176,-0.022,-0.018,-0.0152,-0.0149,-0.0165,-0.0207,-0.0196,-0.0147,-0.0149,-0.0151,-0.0152,-0.0153,0,-0.052,-0.0517,-0.052,-0.0519,-0.0508,-0.0503,-0.0495,-0.0458,-0.0442,-0.0387,-0.0368,-0.029,-0.0262,-0.0185,-0.0138,-0.0153,-0.0031,-0.0044,-0.0026,-0.003,-0.0029,-0.0039,0.0063,0.0063,0.0062,0.0062,0.0062,0,-0.0518,-0.052,-0.0527,-0.0529,-0.0527,-0.0515,-0.0501,-0.0478,-0.0438,-0.0409,-0.0359,-0.0319,-0.0235,-0.0169,-0.0116,-0.0041,-0.0007,0.0003,0.0003,-0.0033,-0.0043,-0.0022,-0.0033,0.0065,0.0064,0.0064,0.0063,0,-0.052,-0.0526,-0.0532,-0.0531,-0.0534,-0.0536,-0.0525,-0.0509,-0.0471,-0.043,-0.0415,-0.0333,-0.025,-0.0173,-0.0057,-0.0024,0.0055,0.0077,0.002,0.001,0.0012,0.0001,0.0116,0.0116,0.0116,0.0116,0.0116,0,-0.0518,-0.0525,-0.0546,-0.0559,-0.0564,-0.0567,-0.0568,-0.0535,-0.0514,-0.0439,-0.0417,-0.033,-0.0273,-0.0132,-0.0054,0.0055,0.0066,0.0099,0.0085,0.0039,0.0026,0.0015,0.0004,0.0116,0.0116,0.0116,0.0116,0,-0.0514,-0.0534,-0.0543,-0.0576,-0.0592,-0.0597,-0.0592,-0.0573,-0.0525,-0.0493,-0.0405,-0.0325,-0.0232,-0.0131,-0.0053,0.0026,0.0074,0.0098,0.0099,0.0087,0.0039,0.0024,0.0014,0.0115,0.0115,0.0115,0.0115,0,-0.0515,-0.0531,-0.0559,-0.0582,-0.0611,-0.0618,-0.0609,-0.0573,-0.0543,-0.0454,-0.0427,-0.0319,-0.0254,-0.0145,-0.0069,-0.0001,0.0018,0.0033,0.0038,0.0039,-0.001,-0.0084,-0.0021,0,0,0,0,0,-0.0509,-0.0531,-0.0559,-0.0587,-0.062,-0.0632,-0.062,-0.0602,-0.0551,-0.0494,-0.0455,-0.0365,-0.0236,-0.0174,-0.0108,-0.0081,0.0018,-0.0004,0.0035,0.0113,0.0113,0.0065,0,0,0,0,0,0,-0.0506,-0.0537,-0.0556,-0.0592,-0.0612,-0.0637,-0.0629,-0.0595,-0.0551,-0.0493,-0.0421,-0.0368,-0.0243,-0.0279,-0.0114,-0.0092,-0.0062,0.0062,0.0063,0.0112,0.0113,0.0113,0.0064,0,0,0,0,0]}]]